Aérodrome :
LOGIN :

S'inscrire | Disclaimer

   EN    FR    IT 

 










Légende :    VFR   VFR Marginal   IFR   IFR Intensif   IFR Très Intensif
Visi : 
Plafond : 
>= 8 km
>= 3000ft
5 à 8 km
1000 à 3000 ft
1500m à 5 km
500 à 1000 ft
800 à 1500m
200 à 500 ft
< 800m
< 200 ft
Symboles :   Orages  Brouillard  Fortes neiges  Fortes précipitations  Vent > 20 kt
SIGMETs :   Divers  Orages  Givrage  Turbulence  Onde Orograph.  Cendres Volcan.







- Altitude de l'aérodrome : 39 ft


ETNH - Hohn AB

DERNIER METAR :
  • 221120Z 11011KT 9999 FEW060 SCT260 23/05 Q1016 BLU+BLU+

METARs EXPIRÉS :
  • 221020Z 10012G22KT 9999 FEW046 23/06 Q1016 BLU+BLU+
  • 220920Z 09008KT 9999 FEW030 SCT220 22/09 Q1016 BLU+BLU+

TAF TAF ETNH
Valide du 22 à 11h jusqu'au 22 à 23h UTC


221020Z 2211/2223 08010KT 9999 NSW FEW050 SCT220
TEMPO 2211/2215 08012G22KT 9999 NSW SCT080 SCT220 BY ETGL
Pas de NOTAMs connus pour ce terrain.



MET'MAP, la Météo Aéronautique d'un coup d'oeil ! - Copyright ORBIFLY Décembre 2007 - Disclaimer

ORBIFLY MET'MAP TEAM :

Programmation & Développement : Alexandra Zaïnal
Conception & Développement : Baudouin d'Aumeries
Co-Programmation & Développement : Marc-Olivier Méhu
Soutien technique & logistique : Manuel Goepfert

Contact : metmap@orbifly.com




SOURCES & CREDITS :

   NOAA